DW2959 Murcia ES current weather conditions

sailwx.info

Wind from 108 at 4 knots

Air temperature 24.4° C
Dewpoint 19.9° C

Last reported at 2014-Sep-30 16:47 UTC.
Time now 2014-Sep-30 17:56 UTC

Location: N 38°00' W 001°02'.
View on Google Maps.

See reports from other nearby stations

  
Tides and Currents Weather Stations Pressure Air Temp Water Temp Dewpoint Dewpoint Depression Visibility Wind Speed Wind Dir Waves Ship Positions
date/time (UTC)wind fromknots sea level pressurealtimeterstation pressurevisibilityair tempwater tempwave heightnotes
2014-Sep-30 16:47 108 4 24.4
2014-Sep-30 16:32 118 5 24.4
2014-Sep-30 16:18 103 3 25.0
2014-Sep-30 16:02 080 4 25.0
2014-Sep-30 15:47 096 3 25.6
2014-Sep-30 15:32 094 4 26.1
2014-Sep-30 15:17 051 3 26.7
2014-Sep-30 15:02 096 4 26.7
2014-Sep-30 14:47 086 2 26.7
2014-Sep-30 14:32 081 3 27.2
2014-Sep-30 14:17 060 3 27.2
2014-Sep-30 14:02 082 4 26.7
2014-Sep-30 13:47 083 2 27.2
2014-Sep-30 13:32 095 0 26.7
2014-Sep-30 13:17 131 2 26.7
2014-Sep-30 13:02 067 1 26.7
2014-Sep-30 12:47 098 26.7
2014-Sep-30 12:32 092 1 26.7
2014-Sep-30 12:17 096 0 26.1
2014-Sep-30 12:02 065 0 26.1
2014-Sep-30 11:47 079 0 26.1
2014-Sep-30 11:32 109 0 25.6
2014-Sep-30 11:17 186 0 25.0
2014-Sep-30 11:02 186 0 24.4
2014-Sep-30 10:47 209 3 23.9
2014-Sep-30 10:32 252 0 23.9
2014-Sep-30 10:17 301 1 23.3
2014-Sep-30 10:02 275 2 22.8
2014-Sep-30 09:47 266 2 22.2
2014-Sep-30 09:32 227 2 21.7
2014-Sep-30 09:17 267 2 21.1
2014-Sep-30 09:02 268 2 20.6
2014-Sep-30 08:47 267 2 20.0
2014-Sep-30 08:31 272 2 19.4
2014-Sep-30 08:16 268 2 19.4
2014-Sep-30 08:01 267 2 19.4
2014-Sep-30 07:46 263 2 18.9
2014-Sep-30 07:31 263 1 18.9
2014-Sep-30 07:16 263 0 18.3
2014-Sep-30 07:01 268 18.3
2014-Sep-30 06:46
2014-Sep-30 06:31
2014-Sep-30 06:16
2014-Sep-30 06:01
2014-Sep-30 05:46
2014-Sep-30 04:45
2014-Sep-30 04:30
2014-Sep-30 04:16
2014-Sep-30 04:01
2014-Sep-30 03:45
2014-Sep-30 03:30
2014-Sep-30 03:15
2014-Sep-30 03:00
2014-Sep-30 02:45
2014-Sep-30 02:30
2014-Sep-30 02:15
2014-Sep-30 01:59
2014-Sep-30 01:44 238 1 18.9
2014-Sep-30 01:29 236 1 18.9
2014-Sep-30 01:14 223 1 18.9
2014-Sep-30 00:59 255 2 18.9
2014-Sep-30 00:45 240 1 18.9
2014-Sep-30 00:28 250 0 18.9
2014-Sep-30 00:14 252 1 18.9
2014-Sep-29 23:59 232 18.9
2014-Sep-29 23:44 232 18.9
2014-Sep-29 23:28 214 1 18.9
2014-Sep-29 23:13 211 19.4
2014-Sep-29 22:58 211 0 19.4
2014-Sep-29 22:44 211 2 19.4
2014-Sep-29 22:28 005 19.4
2014-Sep-29 22:13 009 0 20.0
2014-Sep-29 21:58 060 0 20.6
2014-Sep-29 21:43 086 20.6
2014-Sep-29 21:28 086 20.6
2014-Sep-29 21:13 086 20.6
2014-Sep-29 20:58 086 20.6
2014-Sep-29 20:43 086 20.6
2014-Sep-29 20:28 086 1 20.6
2014-Sep-29 20:13 091 20.6
2014-Sep-29 19:57 122 0 21.1
2014-Sep-29 19:42 213 4 21.7
2014-Sep-29 19:28 157 3 22.2
2014-Sep-29 19:13 096 22.8
2014-Sep-29 18:58 096 0 22.8
2014-Sep-29 18:42 099 22.8
2014-Sep-29 18:28 099 0 22.8
2014-Sep-29 18:12 099 0 23.3
2014-Sep-29 17:57 104 1 23.3
2014-Sep-29 17:42 109 2 23.3
2014-Sep-29 17:27 123 3 23.9
2014-Sep-29 17:12 130 2 23.9
2014-Sep-29 16:57 117 2 24.4
2014-Sep-29 16:42 098 3 25.0
2014-Sep-29 16:27 112 0 25.6
2014-Sep-29 16:12 128 0 25.6
2014-Sep-29 15:57 106 0 25.6
2014-Sep-29 15:42 100 26.1
2014-Sep-29 15:27 088 0 26.1
2014-Sep-29 15:12 095 25.6
2014-Sep-29 14:58 095 25.6
2014-Sep-29 14:42 094 1 25.6
2014-Sep-29 14:27 073 1 25.0
2014-Sep-29 14:12 117 0 25.6
2014-Sep-29 13:57 115 1 24.4
2014-Sep-29 13:42 105 0 23.9
2014-Sep-29 13:27 019 23.9
2014-Sep-29 13:12 019 0 23.3
2014-Sep-29 12:57 018 23.3
2014-Sep-29 12:42 018 22.8
2014-Sep-29 12:27 018 22.2
2014-Sep-29 12:12 018 0 22.2
2014-Sep-29 11:57 016 1 21.7
2014-Sep-29 11:42 241 21.7
2014-Sep-29 11:27 241 21.1
2014-Sep-29 11:12 241 1 21.1
2014-Sep-29 10:57 267 2 21.1
2014-Sep-29 10:42 296 0 21.1
2014-Sep-29 10:26 314 1 21.1
2014-Sep-29 10:11 252 1 21.1
2014-Sep-29 09:56 231 1 21.1
2014-Sep-29 09:41 236 21.1
2014-Sep-29 09:26 236 21.1
2014-Sep-29 09:11 236 21.1
2014-Sep-29 08:56 236 21.1
2014-Sep-29 08:42 236 2 21.1
2014-Sep-29 08:26 218 1 21.1
2014-Sep-29 08:12 217 1 20.6
2014-Sep-29 07:56 213 2 20.6
2014-Sep-29 07:41 227 20.6
2014-Sep-29 07:26 227 20.6
2014-Sep-29 07:11
2014-Sep-29 06:56
2014-Sep-29 06:41
2014-Sep-29 06:26
2014-Sep-29 06:11
2014-Sep-29 05:56
2014-Sep-29 04:40
2014-Sep-29 04:26
2014-Sep-29 04:10
2014-Sep-29 03:55
2014-Sep-29 03:40
2014-Sep-29 03:25
2014-Sep-29 03:10
2014-Sep-29 02:55
2014-Sep-29 02:40
2014-Sep-29 02:25
2014-Sep-29 02:10
2014-Sep-29 01:55
2014-Sep-29 01:40 192 1 20.0
2014-Sep-29 01:25 107 20.0
2014-Sep-29 01:09 107 20.0
2014-Sep-29 00:54 105 20.6
2014-Sep-29 00:40 105 20.6
2014-Sep-29 00:24 105 20.6
2014-Sep-29 00:09 105 20.6
2014-Sep-28 23:54 105 20.6
2014-Sep-28 23:40 105 20.6
2014-Sep-28 23:25 105 20.6
2014-Sep-28 23:09 105 20.6
2014-Sep-28 22:55 105 20.6
2014-Sep-28 22:39 105 21.1
2014-Sep-28 22:24 105 21.1
2014-Sep-28 22:09 105 21.1
2014-Sep-28 21:54 105 21.1
2014-Sep-28 21:39 105 0 21.7
2014-Sep-28 21:26 105 21.7
2014-Sep-28 21:09 101 21.7
2014-Sep-28 20:54 101 21.7
2014-Sep-28 20:40 101 22.2
2014-Sep-28 20:24 101 0 22.2
2014-Sep-28 20:09 101 0 22.2
2014-Sep-28 19:54 107 0 22.8
2014-Sep-28 19:39 107 0 22.8
2014-Sep-28 19:25 107 22.8
2014-Sep-28 19:10 107 23.3
2014-Sep-28 18:55 107 23.3
2014-Sep-28 18:40 104 0 23.3
2014-Sep-28 18:24 114 2 23.9
2014-Sep-28 18:10 117 2 23.9
2014-Sep-28 17:55 132 2 23.9
2014-Sep-28 17:40 124 1 24.4
2014-Sep-28 17:25 144 0 25.0
2014-Sep-28 17:10 111 0 26.1